YAOGAN 10

导读

YAOGAN 10即遥感十号卫星,是中国自主研制的遥感卫星,于北京时间2010年8月9日发射。该卫星由中国航天科技集团公司上海航天技术研究院为主研制,采用长征四号丙运载火箭执行发射任务,是长征系列运载火箭的第127次飞行。卫星主要服务于科学试验、国土资源普查、农作物估产及防灾减灾等领域,可为国民经济发展提供有力的数据支撑。

基本信息
目录编号:
36834
目录名称:
YAOGAN 10
国际标识:
2010-038A
轨道中心:
EARTH
卫星名称:
YAOGAN 10
卫星全名:
--
卫星状态:
在轨 (已飞行5786 天)
发射日期:
2010-08-09 UTC
国别 :
中国 (CN)
星等 :
--
轨道信息
数据来源 国际轨道数据 AOE轨道数据
星历时间 2026-06-12T15:28:21+0800
12小时前
查看轨道信息
2026-06-12T23:00:00+0800
4小时前
查看轨道信息
半长轴 6990.674km 6990.645km
偏心率 0.0001679 0.0001615
轨道倾角 97.898° 97.897°
近地点辐角 90.075° 92.856°
升交点赤经 186.755° 187.065°
平近点角 38.499° 271.832°
近地点 611.363km 611.379km
远地点 613.711km 613.637km
周期 96.948分钟 96.947分钟
每日圈数 14.853343 14.853436
详细信息
使用方式:
暂无
2D轨道图
3D轨道图
轨道高度分析图
轨道倾角分析图
轨道综合分析图
查看轨道综合分析图